Weather History for Antigo, WI

Change the Weather History Date:

Thursday, February 7, 2013

  Actual Average Record
Temperature  
Mean Temperature 21 °F -  
Max Temperature 23 °F 22 °F 43 °F (1970)
Min Temperature 18 °F -2 °F -27 °F (1982)
Degree Days  
Heating Degree Days 44    
Moisture  
Dew Point 20 °F    
Average Humidity 94    
Maximum Humidity 98    
Minimum Humidity 85    
Precipitation  
Precipitation 0.00 in - - ()
Sea Level Pressure  
Sea Level Pressure 30.04 in    
Wind  
Wind Speed 9 mph (NE)    
Max Wind Speed 17 mph    
Max Gust Speed 23 mph    
Visibility 6 miles    
Events Snow    
Averages and records for this station are not official NWS values.
T = Trace of Precipitation, MM = Missing Value Source: NWS Daily Summary

Daily Weather History Graph

Daily Weather History Graph

Search for Another Location

Airport:

Trip Planner

Search our weather history database for the weather conditions in past years. The results will help you decide how hot, cold, wet, or windy it might be!

Date:

Astronomy

Feb. 07, 2013 Rise Set
Actual Time 7:08 AM CST 5:13 PM CST
Civil Twilight 6:37 AM CST 5:43 PM CST
Nautical Twilight 6:03 AM CST 6:18 PM CST
Astronomical Twilight 5:28 AM CST 6:53 PM CST
Moon 4:52 AM CST (2/7) 2:33 PM CST (2/7)
Length of Visible Light 11h 06m
Length of Day
10h 04m
Waning Crescent, 9% of the Moon is Illuminated
Feb 7
Waning Crescent
Feb 10
New
Feb 17
First Quarter
Feb 25
Full
Mar 4
Last Quarter

Hourly Weather History & Observations

Time (CST) Temp. Windchill Dew Point Humidity Pressure Visibility Wind Dir Wind Speed Gust Speed Precip Events Conditions
12:15 AM 21.2 °F 11.7 °F 20.3 °F 96% 30.04 in 2.5 mi SE 8.1 mph - N/A   Overcast
12:35 AM 21.6 °F 13.0 °F 20.8 °F 97% 30.04 in 2.5 mi SE 6.9 mph - N/A   Overcast
12:55 AM 22.1 °F 12.8 °F 21.2 °F 96% 30.03 in 2.5 mi SE 8.1 mph - N/A   Overcast
1:15 AM 22.1 °F 14.7 °F 21.4 °F 97% 30.03 in 2.5 mi SE 5.8 mph - N/A   Overcast
1:35 AM 22.5 °F 15.1 °F 21.7 °F 97% 30.03 in 3.0 mi ESE 5.8 mph - N/A   Overcast
1:55 AM 22.6 °F 15.3 °F 21.9 °F 97% 30.04 in 2.5 mi ESE 5.8 mph - N/A   Overcast
2:15 AM 23.0 °F 15.8 °F 22.1 °F 96% 30.04 in 2.5 mi ESE 5.8 mph - N/A   Overcast
2:35 AM 23.0 °F 14.7 °F 22.5 °F 98% 30.03 in 3.0 mi ESE 6.9 mph - N/A   Overcast
2:55 AM 23.4 °F 14.3 °F 22.8 °F 98% 30.02 in 3.0 mi ESE 8.1 mph - N/A   Overcast
3:15 AM 23.5 °F 15.4 °F 22.8 °F 97% 30.02 in 3.0 mi ESE 6.9 mph - N/A   Overcast
3:35 AM 23.0 °F 17.0 °F 22.5 °F 98% 30.02 in 3.0 mi East 4.6 mph - N/A   Overcast
3:55 AM 23.0 °F 14.7 °F 22.3 °F 97% 30.02 in 3.0 mi East 6.9 mph - N/A   Overcast
4:15 AM 22.6 °F 15.3 °F 21.9 °F 97% 30.02 in 3.0 mi ENE 5.8 mph - N/A   Overcast
4:35 AM 22.1 °F 12.8 °F 21.2 °F 96% 30.02 in 4.0 mi East 8.1 mph - N/A   Overcast
4:55 AM 22.1 °F 15.9 °F 21.2 °F 96% 30.02 in 4.0 mi East 4.6 mph - N/A   Overcast
5:15 AM 21.7 °F 13.2 °F 20.8 °F 96% 30.02 in 4.0 mi East 6.9 mph - N/A   Overcast
5:35 AM 21.2 °F 16.4 °F 20.3 °F 96% 30.02 in 4.0 mi East 3.5 mph - N/A   Overcast
5:55 AM 21.0 °F 12.4 °F 19.9 °F 96% 30.02 in 4.0 mi ENE 6.9 mph - N/A   Overcast
6:15 AM 20.7 °F 11.0 °F 19.4 °F 95% 30.01 in 4.0 mi ENE 8.1 mph - N/A   Overcast
6:35 AM 20.7 °F 11.0 °F 19.4 °F 95% 30.02 in 7.0 mi NE 8.1 mph - N/A   Overcast
6:55 AM 20.1 °F 9.5 °F 19.2 °F 96% 30.02 in 7.0 mi NE 9.2 mph - N/A   Overcast
7:15 AM 20.1 °F 10.3 °F 19.2 °F 96% 30.02 in 5.0 mi NE 8.1 mph - N/A   Overcast
7:35 AM 20.1 °F 13.6 °F 19.2 °F 96% 30.03 in 4.0 mi ENE 4.6 mph - N/A   Overcast
7:55 AM 20.3 °F 12.5 °F 19.4 °F 96% 30.04 in 5.0 mi ENE 5.8 mph - N/A   Overcast
8:15 AM 20.3 °F 11.5 °F 19.2 °F 96% 30.04 in 7.0 mi ENE 6.9 mph - N/A   Overcast
8:35 AM 20.3 °F 11.5 °F 19.4 °F 96% 30.04 in 4.0 mi ENE 6.9 mph - N/A   Overcast
8:55 AM 20.8 °F 11.2 °F 19.9 °F 96% 30.04 in 3.0 mi ENE 8.1 mph - N/A   Overcast
9:15 AM 21.0 °F 11.4 °F 20.3 °F 97% 30.04 in 3.0 mi NE 8.1 mph - N/A   Overcast
9:35 AM 21.4 °F 12.8 °F 20.5 °F 96% 30.04 in 3.0 mi NE 6.9 mph - N/A   Overcast
9:55 AM 21.7 °F 13.2 °F 21.0 °F 97% 30.04 in 3.0 mi NE 6.9 mph - N/A   Overcast
10:15 AM 22.5 °F 12.4 °F 21.6 °F 96% 30.04 in 5.0 mi NE 9.2 mph - N/A   Overcast
10:35 AM 22.6 °F 13.4 °F 21.7 °F 96% 30.05 in 5.0 mi NE 8.1 mph - N/A   Overcast
10:55 AM 22.6 °F 12.6 °F 21.7 °F 96% 30.05 in 4.0 mi NNE 9.2 mph - N/A   Overcast
11:15 AM 22.6 °F 11.9 °F 21.7 °F 96% 30.05 in 5.0 mi NE 10.4 mph - N/A   Overcast
11:35 AM 22.6 °F 11.3 °F 21.7 °F 96% 30.03 in 5.0 mi NE 11.5 mph - N/A   Overcast
11:55 AM 22.6 °F 11.9 °F 21.7 °F 96% 30.02 in 10.0 mi NE 10.4 mph - N/A   Overcast
12:15 PM 23.0 °F 12.4 °F 21.9 °F 96% 30.02 in 7.0 mi NE 10.4 mph - N/A   Overcast
12:35 PM 23.0 °F 13.1 °F 21.9 °F 96% 30.02 in 10.0 mi NE 9.2 mph - N/A   Overcast
12:55 PM 23.0 °F 11.7 °F 21.9 °F 96% 30.00 in 10.0 mi NE 11.5 mph - N/A   Overcast
1:15 PM 23.0 °F 12.4 °F 21.9 °F 96% 29.99 in 10.0 mi NE 10.4 mph - N/A Snow Light Snow
1:35 PM 23.0 °F 11.7 °F 21.7 °F 95% 29.99 in 10.0 mi NE 11.5 mph - N/A   Overcast
1:55 PM 23.0 °F 11.7 °F 21.6 °F 94% 29.99 in 10.0 mi NE 11.5 mph - N/A   Overcast
2:15 PM 23.0 °F 11.7 °F 21.2 °F 93% 29.99 in 10.0 mi NE 11.5 mph - N/A   Overcast
2:35 PM 23.0 °F 11.7 °F 20.8 °F 91% 29.99 in 10.0 mi NE 11.5 mph - N/A   Overcast
2:55 PM 23.0 °F 12.4 °F 20.8 °F 91% 29.99 in 10.0 mi NE 10.4 mph - N/A   Overcast
3:15 PM 23.0 °F 11.7 °F 21.0 °F 92% 29.99 in 10.0 mi NE 11.5 mph - N/A   Overcast
3:35 PM 23.0 °F 10.6 °F 21.0 °F 92% 29.99 in 10.0 mi NE 13.8 mph - N/A   Overcast
3:55 PM 23.4 °F 12.8 °F 21.2 °F 91% 29.99 in 10.0 mi NE 10.4 mph - N/A   Overcast
4:15 PM 23.4 °F 11.1 °F 21.6 °F 93% 30.00 in 7.0 mi NE 13.8 mph - N/A   Overcast
4:35 PM 23.0 °F 11.7 °F 21.6 °F 94% 30.00 in 7.0 mi NE 11.5 mph - N/A   Overcast
4:55 PM 23.0 °F 10.6 °F 21.6 °F 94% 30.01 in 10.0 mi NE 13.8 mph - N/A   Overcast
5:15 PM 23.0 °F 11.1 °F 21.4 °F 94% 30.02 in 2.0 mi NNE 12.7 mph 19.6 mph N/A Snow Light Snow
5:35 PM 22.8 °F 10.4 °F 20.8 °F 92% 30.03 in 4.0 mi NE 13.8 mph 18.4 mph N/A Snow Light Snow
5:55 PM 22.5 °F 11.7 °F 20.3 °F 91% 30.04 in 5.0 mi NE 10.4 mph - N/A   Overcast
6:15 PM 22.1 °F 8.5 °F 19.4 °F 89% 30.04 in 7.0 mi NE 16.1 mph - N/A   Overcast
6:35 PM 21.7 °F 9.0 °F 19.4 °F 91% 30.05 in 7.0 mi NNE 13.8 mph - N/A Snow Light Snow
6:55 PM 21.6 °F 8.2 °F 18.5 °F 88% 30.05 in 7.0 mi NE 15.0 mph - N/A Snow Light Snow
7:15 PM 21.2 °F 6.8 °F 18.5 °F 89% 30.06 in 5.0 mi NNE 17.3 mph - N/A Snow Light Snow
7:35 PM 20.8 °F 7.3 °F 18.3 °F 90% 30.06 in 7.0 mi NNE 15.0 mph 23.0 mph N/A   Overcast
7:55 PM 20.7 °F 8.2 °F 18.1 °F 90% 30.07 in 10.0 mi NE 12.7 mph - N/A   Overcast
8:15 PM 20.3 °F 6.6 °F 18.0 °F 91% 30.07 in 10.0 mi NE 15.0 mph - N/A   Overcast
8:35 PM 20.3 °F 7.2 °F 18.1 °F 91% 30.08 in 10.0 mi NE 13.8 mph - N/A   Overcast
8:55 PM 20.3 °F 6.6 °F 18.0 °F 91% 30.09 in 10.0 mi NNE 15.0 mph - N/A   Overcast
9:15 PM 20.3 °F 7.7 °F 17.6 °F 89% 30.10 in 10.0 mi NNE 12.7 mph 20.7 mph N/A   Overcast
9:35 PM 20.1 °F 6.4 °F 17.4 °F 89% 30.10 in 7.0 mi NNE 15.0 mph - N/A   Overcast
9:55 PM 19.9 °F 6.7 °F 16.9 °F 88% 30.11 in 10.0 mi NNE 13.8 mph - N/A Snow Light Snow
10:15 PM 19.8 °F 5.0 °F 16.3 °F 87% 30.11 in 5.0 mi NE 17.3 mph 20.7 mph N/A Snow Light Snow
10:35 PM 19.4 °F 6.0 °F 16.3 °F 88% 30.12 in 7.0 mi NNE 13.8 mph - N/A Snow Light Snow
11:15 PM 19.2 °F 5.8 °F 15.6 °F 86% 30.12 in 10.0 mi NNE 13.8 mph 19.6 mph N/A   Overcast
11:35 PM 19.0 °F 6.1 °F 15.3 °F 85% 30.13 in 10.0 mi NNE 12.7 mph 17.3 mph N/A   Overcast
11:55 PM 18.7 °F 5.7 °F 14.9 °F 85% 30.13 in 10.0 mi NNE 12.7 mph 18.4 mph N/A   Overcast